EA8TK-13 Weather Reports


time (UTC)temp
C
wind
direction
speed
KPH
gust
KPH
rain 1hr
cm
rain 24hr
cm
rain mn
cm
humidity
%
barometer
mb
20190424224617 13 4 17.7 24.1 0.00 0.03 0.00 84 1022.5
20190424223056 13 322 14.5 24.1 0.00 0.03 0.00 84 1022.5
20190424221619 13 350 9.7 14.5 0.00 0.03 0.00 82 1022.4
20190424220134 14 296 9.7 19.3 0.00 0.03 0.00 82 1022.4
20190424214534 14 326 4.8 16.1 0.00 0.03 0.00 82 1022.3
20190424213056 14 359 8.0 19.3 0.00 0.03 0.00 81 1022.0
20190424211555 14 354 9.7 19.3 0.00 0.03 0.00 80 1021.9
20190424210120 14 314 8.0 20.9 0.00 0.03 0.00 80 1021.9
20190424204527 14 317 11.3 20.9 0.00 0.03 0.00 79 1021.8
20190424203030 15 321 11.3 24.1 0.00 0.03 0.00 79 1021.5
20190424201527 15 310 14.5 25.7 0.00 0.03 0.00 79 1021.2
20190424200102 15 324 12.9 24.1 0.00 0.03 0.00 78 1021.2
20190424194521 15 299 14.5 29.0 0.00 0.03 0.00 77 1021.1
20190424193049 15 316 12.9 29.0 0.00 0.03 0.00 77 1021.1
20190424191527 15 316 17.7 30.6 0.00 0.03 0.00 76 1020.8
20190424190045 15 335 12.9 29.0 0.00 0.03 0.00 76 1020.7
20190424184526 15 318 17.7 30.6 0.00 0.03 0.00 75 1020.7
20190424183032 16 303 9.7 22.5 0.00 0.03 0.00 74 1020.7
20190424181520 16 309 14.5 22.5 0.00 0.03 0.00 72 1020.6
20190424180036 16 350 4.8 20.9 0.00 0.03 0.00 72 1020.7
20190424174537 16 299 8.0 17.7 0.00 0.03 0.00 71 1021.0
20190424173015 17 323 8.0 17.7 0.00 0.03 0.00 71 1021.0
20190424171552 17 299 12.9 19.3 0.00 0.03 0.00 69 1020.9
20190424170028 17 343 6.4 19.3 0.00 0.03 0.00 70 1020.7
20190424164526 17 324 9.7 24.1 0.00 0.03 0.00 70 1020.7
20190424163019 17 329 14.5 29.0 0.00 0.03 0.00 70 1020.5
20190424161543 17 341 14.5 25.7 0.00 0.03 0.00 69 1020.4
20190424160023 17 329 12.9 25.7 0.00 0.03 0.00 69 1020.3
20190424154515 18 335 12.9 22.5 0.00 0.03 0.00 67 1020.3
20190424153023 17 347 11.3 25.7 0.00 0.03 0.00 69 1020.4
20190424151507 18 343 14.5 27.4 0.00 0.03 0.00 66 1020.4
20190424150015 18 348 16.1 25.7 0.00 0.03 0.00 66 1020.6
20190424144524 17 320 9.7 27.4 0.00 0.05 0.00 68 1020.5
20190424143003 18 318 6.4 24.1 0.00 0.05 0.00 68 1020.5
20190424141502 17 318 12.9 30.6 0.00 0.05 0.00 67 1020.5
20190424140021 17 330 12.9 27.4 0.00 0.05 0.00 67 1020.6
20190424134708 17 301 9.7 27.4 0.00 0.13 0.00 66 1020.5
20190424133128 17 347 19.3 27.4 0.00 0.13 0.00 68 1020.5
20190424131751 17 289 19.3 27.4 0.00 0.13 0.00 68 1020.4
20190424130120 17 258 16.1 27.4 0.00 0.13 0.00 66 1020.4
20190424124838 17 299 11.3 24.1 0.00 0.15 0.00 68 1020.4
20190424123216 18 332 8.0 24.1 0.00 0.15 0.00 64 1020.3
20190424121657 18 330 11.3 27.4 0.00 0.15 0.00 65 1020.2
20190424120151 18 297 11.3 24.1 0.00 0.15 0.00 63 1020.2
20190424114710 17 318 14.5 25.7 0.00 0.15 0.00 64 1020.2
20190424113205 18 332 8.0 17.7 0.00 0.15 0.00 61 1020.1
20190424111716 17 12 11.3 22.5 0.00 0.15 0.00 65 1020.0
20190424110145 17 293 8.0 20.9 0.00 0.15 0.00 66 1019.9
20190424104607 17 12 11.3 20.9 0.00 0.15 0.00 66 1019.8
20190424103134 17 290 8.0 27.4 0.00 0.15 0.00 68 1019.7
20190424101753 16 4 14.5 22.5 0.00 0.15 0.00 70 1019.7
20190424100125 16 343 11.3 20.9 0.00 0.15 0.00 71 1019.6
20190424094629 16 359 17.7 24.1 0.00 0.15 0.00 73 1019.6
20190424093201 16 24 14.5 25.7 0.00 0.15 0.00 72 1019.5
20190424091648 15 350 8.0 25.7 0.00 0.15 0.00 74 1019.3
20190424090124 15 341 17.7 32.2 0.00 0.15 0.00 75 1019.2
20190424084543 15 318 16.1 29.0 0.00 0.15 0.00 74 1019.1
20190424083031 15 306 12.9 25.7 0.00 0.15 0.00 77 1018.9
20190424081539 14 327 16.1 29.0 0.00 0.15 0.00 79 1018.8
20190424080055 14 308 12.9 25.7 0.00 0.15 0.00 82 1018.8
20190424074523 13 319 14.5 29.0 0.00 0.15 0.00 83 1018.6
20190424073019 13 350 11.3 25.7 0.00 0.15 0.00 83 1018.6
20190424071519 13 330 12.9 25.7 0.00 0.15 0.00 83 1018.4
20190424070013 13 338 12.9 22.5 0.00 0.15 0.00 83 1018.1
20190424064538 13 335 8.0 19.3 0.00 0.15 0.00 83 1018.0
20190424063016 13 314 9.7 19.3 0.00 0.15 0.00 84 1017.9
20190424061517 13 345 11.3 19.3 0.00 0.15 0.00 83 1017.9
20190424060038 13 314 12.9 22.5 0.00 0.15 0.00 84 1017.8
20190424054511 13 8 9.7 22.5 0.00 0.15 0.00 84 1017.6
20190424053022 13 293 12.9 20.9 0.00 0.15 0.00 85 1017.3
20190424051524 13 326 9.7 24.1 0.00 0.15 0.00 84 1017.2
20190424050012 13 359 12.9 20.9 0.00 0.15 0.00 84 1017.2
20190424044512 13 359 14.5 22.5 0.00 0.15 0.00 85 1017.1
20190424043010 13 334 12.9 19.3 0.00 0.15 0.00 85 1017.2
20190424041506 13 359 8.0 22.5 0.00 0.15 0.00 86 1017.2
20190424040014 13 8 4.8 20.9 0.00 0.15 0.00 85 1017.4
20190424033148 13 344 9.7 19.3 0.00 0.15 0.00 84 1017.4
20190424031725 13 10 8.0 20.9 0.00 0.15 0.00 85 1017.5
20190424030216 13 8 6.4 20.9 0.00 0.15 0.00 85 1017.7
20190424024652 13 341 11.3 20.9 0.00 0.15 0.00 84 1017.7
20190424023137 13 341 12.9 25.7 0.00 0.15 0.00 83 1017.6
20190424021710 13 359 9.7 22.5 0.00 0.15 0.00 83 1017.8
20190424020251 13 4 12.9 24.1 0.00 0.15 0.00 82 1018.0
20190424014710 13 359 16.1 29.0 0.00 0.15 0.00 83 1018.0
20190424013156 13 336 16.1 24.1 0.00 0.15 0.00 84 1018.0
20190424011659 13 8 14.5 24.1 0.00 0.15 0.00 83 1018.0
20190424010127 13 16 11.3 27.4 0.00 0.15 0.00 84 1018.5
20190424004634 13 326 9.7 16.1 0.00 0.15 0.00 84 1018.5
20190424003122 13 329 6.4 25.7 0.00 0.15 0.00 83 1018.3
20190424001715 13 12 11.3 19.3 0.00 0.15 0.00 84 1018.3
20190424000138 13 8 12.9 22.5 0.00 0.15 0.00 84 1018.5
20190423234707 13 350 9.7 19.3 0.00 0.15 0.00 84 1018.6
20190423233107 13 14 11.3 27.4 0.00 0.15 0.00 83 1018.6
20190423231554 13 316 8.0 29.0 0.00 0.15 0.00 84 1018.4
20190423230127 13 293 8.0 24.1 0.03 0.15 0.00 84 1018.6